Weather History for Pine River, MN

Change the Weather History Date:

Wednesday, September 11, 2013

  Actual Average Record
Temperature  
Mean Temperature 65 °F -  
Max Temperature 77 °F 70 °F 87 °F (2011)
Min Temperature 53 °F 47 °F 35 °F (1999)
Growing Degree Days 15 (Base 50)    
Moisture  
Dew Point 55 °F    
Average Humidity 73    
Maximum Humidity 100    
Minimum Humidity 43    
Precipitation  
Precipitation 0.00 in - - ()
Sea Level Pressure  
Sea Level Pressure 30.05 in    
Wind  
Wind Speed 3 mph (NW)    
Max Wind Speed 14 mph    
Max Gust Speed 23 mph    
Visibility 10 miles    
Events      
Averages and records for this station are not official NWS values.
T = Trace of Precipitation, MM = Missing Value Source: NWS Daily Summary

Daily Weather History Graph

Daily Weather History Graph

Search for Another Location

Airport:

Trip Planner

Search our weather history database for the weather conditions in past years. The results will help you decide how hot, cold, wet, or windy it might be!

Date:

Astronomy

Sep. 11, 2013 Rise Set
Actual Time 6:50 AM CDT 7:36 PM CDT
Civil Twilight 6:19 AM CDT 8:07 PM CDT
Nautical Twilight 5:43 AM CDT 8:43 PM CDT
Astronomical Twilight 5:04 AM CDT 9:21 PM CDT
Moon 1:43 PM CDT (9/11) 11:09 PM CDT (9/11)
Length of Visible Light 13h 47m
Length of Day
12h 46m
Waxing Crescent, 39% of the Moon is Illuminated
Sep 11
Waxing Crescent
Sep 12
First Quarter
Sep 19
Full
Sep 26
Last Quarter
Oct 4
New

Hourly Weather History & Observations

Time (CDT) Temp. Dew Point Humidity Pressure Visibility Wind Dir Wind Speed Gust Speed Precip Events Conditions
12:12 AM 55.4 °F 55.4 °F 100% 29.99 in 10.0 mi Calm Calm - N/A   Clear
12:33 AM 55.4 °F 55.4 °F 100% 29.99 in 7.0 mi Calm Calm - N/A   Clear
12:53 AM 55.4 °F 55.4 °F 100% 29.98 in 7.0 mi Calm Calm - N/A   Clear
1:13 AM 55.4 °F 55.4 °F 100% 29.99 in 7.0 mi Calm Calm - N/A   Clear
1:33 AM 55.4 °F 55.4 °F 100% 29.99 in 5.0 mi Calm Calm - N/A   Clear
1:52 AM 55.4 °F 55.4 °F 100% 29.99 in 4.0 mi Calm Calm - N/A   Clear
2:13 AM 53.6 °F 53.6 °F 100% 29.98 in 7.0 mi Calm Calm - N/A   Clear
2:33 AM 53.6 °F 53.6 °F 100% 29.98 in 7.0 mi Calm Calm - N/A   Clear
2:52 AM 55.4 °F 55.4 °F 100% 29.98 in 10.0 mi Calm Calm - N/A   Clear
3:13 AM 53.6 °F 53.6 °F 100% 29.99 in 7.0 mi Calm Calm - N/A   Clear
3:33 AM 53.6 °F 53.6 °F 100% 29.99 in 10.0 mi Calm Calm - N/A   Clear
3:52 AM 55.4 °F 53.6 °F 94% 29.99 in 10.0 mi Calm Calm - N/A   Clear
4:13 AM 59.0 °F 59.0 °F 100% 29.99 in 10.0 mi Calm Calm - N/A   Clear
4:32 AM 59.0 °F 57.2 °F 94% 29.99 in 10.0 mi Calm Calm - N/A   Clear
4:53 AM 57.2 °F 57.2 °F 100% 29.99 in 10.0 mi Calm Calm - N/A   Clear
5:13 AM 57.2 °F 57.2 °F 100% 29.99 in 10.0 mi Calm Calm - N/A   Clear
5:32 AM 57.2 °F 57.2 °F 100% 29.99 in 10.0 mi Calm Calm - N/A   Clear
5:53 AM 55.4 °F 55.4 °F 100% 29.99 in 10.0 mi Calm Calm - N/A   Clear
6:13 AM 57.2 °F 57.2 °F 100% 29.99 in 10.0 mi Calm Calm - N/A   Clear
6:32 AM 57.2 °F 57.2 °F 100% 30.00 in 10.0 mi Calm Calm - N/A   Clear
6:53 AM 59.0 °F 59.0 °F 100% 30.01 in 10.0 mi Calm Calm - N/A   Clear
7:12 AM 59.0 °F 59.0 °F 100% 30.01 in 10.0 mi Calm Calm - N/A   Clear
7:32 AM 59.0 °F 59.0 °F 100% 30.01 in 10.0 mi Calm Calm - N/A   Clear
7:53 AM 60.8 °F 59.0 °F 94% 30.02 in 10.0 mi West 4.6 mph - N/A   Clear
8:12 AM 60.8 °F 59.0 °F 94% 30.02 in 10.0 mi West 5.8 mph - N/A   Clear
8:33 AM 60.8 °F 57.2 °F 88% 30.03 in 10.0 mi WNW 4.6 mph - N/A   Clear
8:53 AM 62.6 °F 59.0 °F 88% 30.03 in 10.0 mi NW 4.6 mph - N/A   Clear
9:12 AM 64.4 °F 59.0 °F 83% 30.04 in 10.0 mi NW 6.9 mph - N/A   Clear
9:33 AM 66.2 °F 59.0 °F 78% 30.04 in 10.0 mi WNW 5.8 mph - N/A   Clear
9:52 AM 66.2 °F 59.0 °F 78% 30.05 in 10.0 mi NW 4.6 mph - N/A   Clear
10:13 AM 69.8 °F 57.2 °F 64% 30.06 in 10.0 mi NNW 8.1 mph - N/A   Clear
10:32 AM 69.8 °F 55.4 °F 60% 30.06 in 10.0 mi NW 6.9 mph - N/A   Clear
10:52 AM 71.6 °F 55.4 °F 57% 30.06 in 10.0 mi NW 6.9 mph - N/A   Clear
11:13 AM 71.6 °F 55.4 °F 57% 30.06 in 10.0 mi NW 11.5 mph - N/A   Clear
11:32 AM 73.4 °F 55.4 °F 53% 30.07 in 10.0 mi NW 8.1 mph - N/A   Clear
11:53 AM 71.6 °F 55.4 °F 57% 30.07 in 10.0 mi WNW 8.1 mph - N/A   Clear
12:13 PM 73.4 °F 53.6 °F 50% 30.07 in 10.0 mi NNW 6.9 mph - N/A   Clear
12:32 PM 73.4 °F 53.6 °F 50% 30.07 in 10.0 mi WNW 6.9 mph - N/A   Clear
12:53 PM 73.4 °F 51.8 °F 47% 30.07 in 10.0 mi NNW 8.1 mph - N/A   Clear
1:12 PM 75.2 °F 53.6 °F 47% 30.07 in 10.0 mi NNW 9.2 mph - N/A   Clear
1:33 PM 75.2 °F 51.8 °F 44% 30.07 in 10.0 mi West 5.8 mph - N/A   Clear
1:53 PM 75.2 °F 51.8 °F 44% 30.07 in 10.0 mi NW 6.9 mph - N/A   Clear
2:12 PM 77.0 °F 53.6 °F 44% 30.07 in 10.0 mi West 6.9 mph - N/A   Scattered Clouds
2:33 PM 77.0 °F 53.6 °F 44% 30.06 in 10.0 mi NW 11.5 mph 16.1 mph N/A   Scattered Clouds
2:53 PM 77.0 °F 53.6 °F 44% 30.06 in 10.0 mi NW 8.1 mph 16.1 mph N/A   Clear
3:12 PM 77.0 °F 53.6 °F 44% 30.05 in 10.0 mi WNW 6.9 mph - N/A   Scattered Clouds
3:33 PM 77.0 °F 55.4 °F 47% 30.05 in 10.0 mi NW 6.9 mph - N/A   Scattered Clouds
3:53 PM 77.0 °F 53.6 °F 44% 30.04 in 10.0 mi WNW 8.1 mph - N/A   Scattered Clouds
4:12 PM 75.2 °F 53.6 °F 47% 30.04 in 10.0 mi West 5.8 mph - N/A   Scattered Clouds
4:33 PM 75.2 °F 53.6 °F 47% 30.04 in 10.0 mi Calm Calm - N/A   Mostly Cloudy
4:53 PM 73.4 °F 55.4 °F 53% 30.04 in 10.0 mi Calm Calm - N/A   Mostly Cloudy
5:12 PM 73.4 °F 55.4 °F 53% 30.03 in 10.0 mi West 4.6 mph - N/A   Mostly Cloudy
5:33 PM 73.4 °F 55.4 °F 53% 30.04 in 10.0 mi West 4.6 mph - N/A   Scattered Clouds
5:52 PM 73.4 °F 57.2 °F 57% 30.03 in 10.0 mi West 4.6 mph - N/A   Scattered Clouds
6:13 PM 75.2 °F 55.4 °F 50% 30.04 in 10.0 mi WNW 10.4 mph - N/A   Scattered Clouds
6:33 PM 73.4 °F 51.8 °F 47% 30.05 in 10.0 mi WNW 9.2 mph 17.3 mph N/A   Clear
6:52 PM 71.6 °F 48.2 °F 43% 30.05 in 10.0 mi NW 13.8 mph 21.9 mph N/A   Clear
7:13 PM 71.6 °F 50.0 °F 46% 30.06 in 10.0 mi WNW 11.5 mph 23.0 mph N/A   Clear
7:33 PM 69.8 °F 50.0 °F 49% 30.07 in 10.0 mi NW 8.1 mph - N/A   Clear
7:52 PM 68.0 °F 50.0 °F 52% 30.08 in 10.0 mi WNW 5.8 mph - N/A   Clear
8:13 PM 66.2 °F 51.8 °F 60% 30.09 in 10.0 mi NNW 6.9 mph - N/A   Scattered Clouds
8:33 PM 66.2 °F 51.8 °F 60% 30.10 in 10.0 mi NNW 8.1 mph - N/A   Scattered Clouds
8:52 PM 66.2 °F 53.6 °F 64% 30.11 in 10.0 mi NNW 5.8 mph - N/A   Clear
9:13 PM 64.4 °F 53.6 °F 68% 30.12 in 10.0 mi NNW 6.9 mph - N/A   Clear
9:33 PM 62.6 °F 51.8 °F 68% 30.13 in 10.0 mi NNW 6.9 mph - N/A   Clear
9:52 PM 62.6 °F 51.8 °F 68% 30.13 in 10.0 mi NNW 6.9 mph - N/A   Clear
10:13 PM 60.8 °F 51.8 °F 72% 30.14 in 10.0 mi North 4.6 mph - N/A   Clear
10:33 PM 60.8 °F 51.8 °F 72% 30.14 in 10.0 mi North 5.8 mph - N/A   Clear
10:52 PM 59.0 °F 51.8 °F 77% 30.14 in 10.0 mi North 5.8 mph - N/A   Clear
11:13 PM 59.0 °F 53.6 °F 82% 30.15 in 10.0 mi NNW 3.5 mph - N/A   Clear
11:33 PM 57.2 °F 53.6 °F 88% 30.16 in 10.0 mi NW 3.5 mph - N/A   Clear
11:52 PM 57.2 °F 53.6 °F 88% 30.16 in 10.0 mi Calm Calm - N/A   Clear